KE9LZ-9 Weather Reports


time (UTC)temp
F
wind
direction
speed
knots
gust
knots
rain 1hr
in
rain 24hr
in
rain mn
in
humidity
%
barometer
mb
20260509093003 47 325 0.9 1.7 0.00 0.00 0.00 59 998.4
20260509092004 47 331 0.9 1.7 0.00 0.00 0.00 60 998.6
20260509091005 48 350 1.7 4.3 0.00 0.00 0.00 57 998.6
20260509090004 48 269 1.7 4.3 0.00 0.00 0.00 57 998.7
20260509085004 46 28 0.0 1.7 0.00 0.00 0.00 63 998.4
20260509084004 45 58 0.0 1.7 0.00 0.00 0.00 66 998.6
20260509083004 45 329 0.0 1.7 0.00 0.00 0.00 65 998.8
20260509082004 45 25 0.0 1.7 0.00 0.00 0.00 65 998.7
20260509081004 44 336 0.0 1.7 0.00 0.00 0.00 66 998.6
20260509080003 44 55 0.0 0.9 0.00 0.00 0.00 67 998.6
20260509075004 44 96 0.0 0.9 0.00 0.00 0.00 68 998.7
20260509074004 44 57 0.0 0.9 0.00 0.00 0.00 67 998.8
20260509073004 43 304 0.0 0.9 0.00 0.00 0.00 66 998.9
20260509072004 43 87 0.0 1.7 0.00 0.00 0.00 67 999.1
20260509071004 43 32 0.0 0.9 0.00 0.00 0.00 65 999.1
20260509070004 43 355 0.0 0.9 0.00 0.00 0.00 64 999.3
20260509063004 44 37 0.0 0.9 0.00 0.00 0.00 61 999.7
20260509062004 44 345 0.0 0.9 0.00 0.00 0.00 62 999.6
20260509060004 45 69 0.0 1.7 0.00 0.00 0.00 61 999.9
20260509053004 46 34 0.0 0.9 0.00 0.00 0.00 58 1000.2
20260509052003 46 11 0.0 0.9 0.00 0.00 0.00 60 1000.5
20260509051004 45 319 0.0 0.9 0.00 0.00 0.00 57 1000.6
20260509050004 45 339 0.0 0.9 0.00 0.00 0.00 58 1000.6
20260509045004 45 12 0.0 0.9 0.00 0.00 0.00 59 1000.8
20260509044004 45 4 0.0 0.9 0.00 0.00 0.00 59 1000.8
20260509043004 45 327 0.0 0.9 0.00 0.00 0.00 59 1000.9
20260509042004 45 353 0.0 0.9 0.00 0.00 0.00 60 1001.2
20260509041003 46 319 0.0 0.9 0.00 0.00 0.00 58 1001.1
20260509040004 46 299 0.0 0.9 0.00 0.00 0.00 56 1001.2
20260509035004 47 317 0.0 0.9 0.00 0.00 0.00 55 1001.4
20260509034004 47 22 0.0 0.9 0.00 0.00 0.00 54 1001.7
20260509031005 47 312 0.0 0.9 0.00 0.00 0.00 51 1001.8
20260509030003 48 310 0.0 0.9 0.00 0.00 0.00 50 1001.9
20260509025004 48 334 0.9 0.9 0.00 0.00 0.00 50 1002.1
20260509024004 48 32 0.0 0.9 0.00 0.00 0.00 49 1002.0
20260509023004 49 324 0.0 0.9 0.00 0.00 0.00 49 1002.1
20260509022003 50 324 0.9 0.9 0.00 0.00 0.00 47 1002.1
20260509020004 53 32 0.0 1.7 0.00 0.00 0.00 44 1002.4
20260509015004 54 309 0.0 1.7 0.00 0.00 0.00 42 1002.4
20260509014004 56 345 0.9 1.7 0.00 0.00 0.00 39 1002.3
20260509012004 59 333 0.9 2.6 0.00 0.00 0.00 36 1002.3
20260509011003 59 338 0.9 4.3 0.00 0.00 0.00 35 1002.2
20260509010003 59 41 0.0 1.7 0.00 0.00 0.00 35 1002.5
20260509005004 60 276 1.7 7.0 0.00 0.00 0.00 33 1002.5
20260509004004 60 264 0.9 6.1 0.00 0.00 0.00 33 1002.6
20260509003003 61 288 2.6 7.0 0.00 0.00 0.00 32 1002.6
20260509002004 60 17 0.9 1.7 0.00 0.00 0.00 34 1002.6
20260509001004 61 268 0.9 1.7 0.00 0.00 0.00 32 1002.7
20260509000004 61 304 1.7 2.6 0.00 0.00 0.00 31 1002.8
20260508235003 61 342 0.9 5.2 0.00 0.00 0.00 32 1002.6
20260508234003 61 272 2.6 6.1 0.00 0.00 0.00 31 1002.8
20260508231003 62 261 1.7 7.8 0.00 0.00 0.00 31 1003.1
20260508230004 62 282 3.5 7.8 0.00 0.00 0.00 30 1003.2
20260508225003 62 233 2.6 11.3 0.00 0.00 0.00 30 1003.0
20260508224004 62 263 4.3 8.7 0.00 0.00 0.00 29 1003.2
20260508221003 62 288 5.2 8.7 0.00 0.00 0.00 29 1003.3
20260508215004 62 290 5.2 11.3 0.00 0.00 0.00 29 1003.5
20260508214004 62 292 3.5 17.4 0.00 0.00 0.00 30 1003.6
20260508213004 62 280 4.3 11.3 0.00 0.00 0.00 29 1003.6
20260508212004 62 329 5.2 18.2 0.00 0.00 0.00 29 1003.5
20260508211004 62 280 5.2 8.7 0.00 0.00 0.00 30 1003.7
20260508210004 62 325 3.5 6.1 0.00 0.00 0.00 30 1003.7
20260508204004 62 292 4.3 10.4 0.00 0.00 0.00 30 1003.9
20260508203004 62 235 2.6 13.0 0.00 0.00 0.00 30 1004.0
20260508201004 62 0 4.3 13.0 0.00 0.00 0.00 29 1004.2
20260508200004 62 324 4.3 14.8 0.00 0.00 0.00 30 1004.3
20260508195003 61 277 1.7 10.4 0.00 0.00 0.00 29 1004.4
20260508194004 62 287 3.5 12.2 0.00 0.00 0.00 29 1004.6
20260508193004 62 242 2.6 11.3 0.00 0.00 0.00 29 1004.5
20260508192004 62 305 2.6 8.7 0.00 0.00 0.00 30 1004.6
20260508191003 63 7 2.6 8.7 0.00 0.00 0.00 29 1004.8
20260508190003 60 260 4.3 8.7 0.00 0.00 0.00 31 1005.1
20260508184003 61 272 5.2 11.3 0.00 0.00 0.00 30 1005.1
20260508183003 60 255 3.5 8.7 0.00 0.00 0.00 30 1005.3
20260508182004 61 261 3.5 8.7 0.00 0.00 0.00 30 1005.3
20260508181005 61 292 4.3 8.7 0.00 0.00 0.00 29 1005.6
20260508180004 60 298 1.7 13.0 0.00 0.00 0.00 30 1005.5
20260508175004 60 317 1.7 11.3 0.00 0.00 0.00 29 1005.8
20260508174004 60 277 3.5 13.9 0.00 0.00 0.00 29 1005.9
20260508173004 62 301 3.5 8.7 0.00 0.00 0.00 28 1006.1
20260508172004 61 298 4.3 13.9 0.00 0.00 0.00 29 1006.3
20260508171004 59 338 4.3 17.4 0.00 0.00 0.00 29 1006.4
20260508165005 59 285 5.2 11.3 0.00 0.00 0.00 30 1006.4
20260508164004 59 250 2.6 17.4 0.00 0.00 0.00 30 1006.6
20260508163004 60 295 2.6 13.0 0.00 0.00 0.00 30 1006.8
20260508162004 60 244 7.0 11.3 0.00 0.00 0.00 30 1006.8
20260508161003 58 243 8.7 15.6 0.00 0.00 0.00 31 1007.0
20260508160003 58 308 5.2 12.2 0.00 0.00 0.00 32 1007.0
20260508154004 57 315 4.3 10.4 0.00 0.00 0.00 32 1007.2
20260508153004 57 263 4.3 13.0 0.00 0.00 0.00 32 1007.4
20260508152004 58 299 4.3 12.2 0.00 0.00 0.00 32 1007.5
20260508151004 57 301 2.6 14.8 0.00 0.00 0.00 33 1007.6
20260508150004 56 291 5.2 13.0 0.00 0.00 0.00 33 1007.7
20260508145004 55 314 6.1 11.3 0.00 0.00 0.00 34 1007.7
20260508144003 55 354 4.3 11.3 0.00 0.00 0.00 35 1007.8
20260508143004 55 27 1.7 6.1 0.00 0.00 0.00 39 1007.8
20260508142004 53 129 0.9 6.1 0.00 0.00 0.00 40 1008.1
20260508141004 52 296 1.7 5.2 0.00 0.00 0.00 42 1008.3
20260508140004 51 283 0.0 5.2 0.00 0.00 0.00 43 1008.2
20260508135004 49 260 1.7 5.2 0.00 0.00 0.00 46 1008.3
20260508134004 48 126 1.7 6.1 0.00 0.00 0.00 49 1008.2
20260508133004 48 265 1.7 7.0 0.00 0.00 0.00 50 1008.3
20260508132003 47 240 1.7 8.7 0.00 0.00 0.00 52 1008.4
20260508131004 45 256 2.6 5.2 0.00 0.00 0.00 55 1008.6
20260508130004 44 238 1.7 5.2 0.00 0.00 0.00 59 1008.3
20260508125003 43 237 1.7 5.2 0.00 0.00 0.00 63 1008.5
20260508124004 41 260 1.7 5.2 0.00 0.00 0.00 69 1008.5
20260508122004 37 275 0.9 2.6 0.00 0.00 0.00 84 1008.6
20260508121004 33 245 0.9 4.3 0.00 0.00 0.00 90 1008.4
20260508120003 30 284 0.0 0.9 0.00 0.00 0.00 92 1008.6
20260508115004 29 54 0.0 0.9 0.00 0.00 0.00 93 1008.6
20260508114004 28 69 0.0 0.9 0.00 0.00 0.00 94 1008.6
20260508113004 28 5 0.9 0.9 0.00 0.00 0.00 94 1008.5
20260508112003 27 0 0.9 1.7 0.00 0.00 0.00 94 1008.5
20260508110004 27 330 0.9 1.7 0.00 0.00 0.00 94 1008.4
20260508105004 27 305 0.9 1.7 0.00 0.00 0.00 94 1008.5
20260508103004 27 301 0.0 1.7 0.00 0.00 0.00 93 1008.4
20260508102004 28 357 0.9 1.7 0.00 0.00 0.00 93 1008.6
20260508101004 28 326 0.9 0.9 0.00 0.00 0.00 92 1008.5
20260508100004 28 32 0.0 0.9 0.00 0.00 0.00 92 1008.7